Location: Góry Miechowskie
(50.3599°N, 20.1803°E)
Time: 01:09:51
(UTC+00:00)

Vanguard 2 - Pass Details

Date: 22 September 2024
Orbit: 552 x 2910 km, 32.9° (Epoch: 09 October)

Event Time Altitude Azimuth Distance (km) Brightness Sun altitude
Rises 02:12:15 0° 229° (SW) 2,836 - -21.3°
Reaches altitude 10° 02:16:10 10° 191° (S) 2,177 - -20.7°
Exits shadow 02:17:25 11° 176° (S) 2,207 9.6 -20.6°
Maximum altitude 02:17:30 11° 175° (S) 2,214 9.7 -20.5°
Drops below altitude 10° 02:18:57 10° 159° (SSE) 2,410 10.0 -20.3°
Sets 02:24:17 0° 127° (SE) 3,887 11.5 -19.6°
